User: anonymous   Login
Location: Unspecified
(0.0000°N, 0.0000°E)
Time: 12:37:11
(UTC+00:00)
Language:

SAUDISAT 4 - Orbit

View from above orbital plane
View from above orbital plane
View from above satellite
View from above satellite

Ground track
Ground track

The orbit data is extracted from the following two-line orbital elements,

1 40016U 14033G   18171.90138627 +.00000013 +00000-0 +92508-5 0  9999
2 40016 097.8143 052.8598 0048433 176.6351 183.5194 14.75190347215496
Epoch (UTC): 20 June 2018 21:37:59
Eccentricity: 0.0048433
inclination: 97.8143°
perigee height: 610 km
apogee height: 678 km
right ascension of ascending node: 52.8598°
argument of perigee: 176.6351°
revolutions per day: 14.75190347
mean anomaly at epoch: 183.5194°
orbit number at epoch: 21549

The dashed part of the orbit path shows where the satellite is in the earth's shadow,  

DLR